| time (UTC) | temp C | wind direction | speed KPH | gust KPH | rain 1hr cm | rain 24hr cm | rain mn cm | humidity % | barometer mb |
| 20260905021730 | 11 | 270 | 14.5 | 33.8 | 0.00 | 0.00 | 0.00 | 99 | |
| 20260905012031 | 11 | 280 | 22.5 | 37.0 | 0.00 | 0.00 | 0.00 | 99 | |
| 20260905001746 | 11 | 280 | 27.4 | 49.9 | 0.00 | 0.00 | 0.00 | 93 | |
| 20260904231801 | 12 | 270 | 27.4 | 51.5 | 0.00 | 0.00 | 0.00 | 99 | |
| 20260904222146 | 12 | 270 | 20.9 | 38.6 | 0.00 | 0.00 | 0.00 | 99 | |
| 20260904211747 | 12 | 360 | 20.9 | 0.0 | 0.00 | 0.00 | 0.00 | 93 | |
| 20260904201746 | 12 | 20 | 9.7 | 0.0 | 0.00 | 0.00 | 0.00 | 87 | |
| 20260904192032 | 13 | 360 | 16.1 | 0.0 | 0.00 | 0.00 | 0.00 | 82 | |
| 20260904181730 | 18 | 280 | 9.7 | 27.4 | 0.00 | 0.00 | 0.00 | 72 | |
| 20260904171746 | 20 | 220 | 25.7 | 38.6 | 0.00 | 0.00 | 0.00 | 68 | |
| 20260904162032 | 21 | 210 | 24.1 | 38.6 | 0.00 | 0.00 | 0.00 | 64 | |
| 20260904151747 | 21 | 200 | 29.0 | 40.2 | 0.00 | 0.00 | 0.00 | 68 | |
| 20260904141730 | 21 | 200 | 37.0 | 53.1 | 0.00 | 0.00 | 0.00 | 68 | |
| 20260904131946 | 20 | 210 | 32.2 | 46.7 | 0.00 | 0.00 | 0.00 | 72 | |
| 20260904121730 | 20 | 220 | 37.0 | 57.9 | 0.00 | 0.00 | 0.00 | 72 | |
| 20260904111730 | 18 | 230 | 37.0 | 57.9 | 0.00 | 0.00 | 0.00 | 77 | |
| 20260904102148 | 17 | 230 | 27.4 | 53.1 | 0.00 | 0.00 | 0.00 | 77 | |
| 20260904091746 | 16 | 220 | 24.1 | 35.4 | 0.00 | 0.00 | 0.00 | 93 | |
| 20260904081746 | 15 | 210 | 25.7 | 37.0 | 0.00 | 0.00 | 0.00 | 99 | |
| 20260904061730 | 13 | 220 | 20.9 | 32.2 | 0.00 | 0.00 | 0.00 | 99 | |
| 20260904051730 | 13 | 220 | 16.1 | 0.0 | 0.00 | 0.00 | 0.00 | 99 | |
| 20260904042133 | 13 | 240 | 12.9 | 24.1 | 0.00 | 0.00 | 0.00 | 93 | |
| 20260904031730 | 13 | 240 | 16.1 | 27.4 | 0.00 | 0.00 | 0.00 | 93 |